Year,Month,Day,Hour,Minute,Value (Times are PST for temperature in C)
2007,09,17,00,00,11.70
2007,09,17,00,01,11.70
2007,09,17,00,02,11.70
2007,09,17,00,03,11.70
2007,09,17,00,04,11.70
2007,09,17,00,05,11.70
2007,09,17,00,06,11.60
2007,09,17,00,07,11.60
2007,09,17,00,08,11.60
2007,09,17,00,09,11.60
2007,09,17,00,10,11.60
2007,09,17,00,11,11.60
2007,09,17,00,12,11.60
2007,09,17,00,13,11.60
2007,09,17,00,14,11.50
2007,09,17,00,15,11.50
2007,09,17,00,16,11.50
2007,09,17,00,17,11.40
2007,09,17,00,18,11.40
2007,09,17,00,19,11.40
2007,09,17,00,20,11.40
2007,09,17,00,21,11.40
2007,09,17,00,22,11.30
2007,09,17,00,23,11.30
2007,09,17,00,24,11.30
2007,09,17,00,25,11.30
2007,09,17,00,26,11.30
2007,09,17,00,27,11.30
2007,09,17,00,28,11.30
2007,09,17,00,29,11.30
2007,09,17,00,30,11.30
2007,09,17,00,31,11.30
2007,09,17,00,32,11.30
2007,09,17,00,33,11.30
2007,09,17,00,34,11.30
2007,09,17,00,35,11.30
2007,09,17,00,36,11.20
2007,09,17,00,37,11.20
2007,09,17,00,38,11.20
2007,09,17,00,39,11.10
2007,09,17,00,40,11.10
2007,09,17,00,41,11.10
2007,09,17,00,42,11.10
2007,09,17,00,43,11.10
2007,09,17,00,44,11.10
2007,09,17,00,45,11.10
2007,09,17,00,46,11.00
2007,09,17,00,47,11.00
2007,09,17,00,48,11.00
2007,09,17,00,49,11.00
2007,09,17,00,50,11.00
2007,09,17,00,51,10.90
2007,09,17,00,52,10.90
2007,09,17,00,53,10.80
2007,09,17,00,54,10.80
2007,09,17,00,55,10.70
2007,09,17,00,56,10.60
2007,09,17,00,57,10.60
2007,09,17,00,58,10.50
2007,09,17,00,59,10.40
2007,09,17,01,00,10.40
2007,09,17,01,01,10.40
2007,09,17,01,02,10.40
2007,09,17,01,03,10.30
2007,09,17,01,04,10.30
2007,09,17,01,05,10.30
2007,09,17,01,06,10.20
2007,09,17,01,07,10.20
2007,09,17,01,08,10.20
2007,09,17,01,09,10.10
2007,09,17,01,10,10.10
2007,09,17,01,11,10.10
2007,09,17,01,12,10.10
2007,09,17,01,13,10.10
2007,09,17,01,14,10.10
2007,09,17,01,15,10.10
2007,09,17,01,16,10.00
2007,09,17,01,17,10.00
2007,09,17,01,18,10.00
2007,09,17,01,19,10.00
2007,09,17,01,20,10.00
2007,09,17,01,21,10.00
2007,09,17,01,22,10.00
2007,09,17,01,23,10.00
2007,09,17,01,24,10.00
2007,09,17,01,25,9.90
2007,09,17,01,26,9.90
2007,09,17,01,27,9.90
2007,09,17,01,28,9.80
2007,09,17,01,29,9.80
2007,09,17,01,30,9.80
2007,09,17,01,31,9.80
2007,09,17,01,32,9.80
2007,09,17,01,33,9.80
2007,09,17,01,34,9.80
2007,09,17,01,35,9.70
2007,09,17,01,36,9.70
2007,09,17,01,37,9.70
2007,09,17,01,38,9.70
2007,09,17,01,39,9.70
2007,09,17,01,40,9.70
2007,09,17,01,41,9.70
2007,09,17,01,42,9.70
2007,09,17,01,43,9.60
2007,09,17,01,44,9.60
2007,09,17,01,45,9.70
2007,09,17,01,46,9.60
2007,09,17,01,47,9.70
2007,09,17,01,48,9.70
2007,09,17,01,49,9.70
2007,09,17,01,50,9.70
2007,09,17,01,51,9.70
2007,09,17,01,52,9.70
2007,09,17,01,53,9.70
2007,09,17,01,54,9.70
2007,09,17,01,55,9.70
2007,09,17,01,56,9.70
2007,09,17,01,57,9.80
2007,09,17,01,58,9.80
2007,09,17,01,59,9.80
2007,09,17,02,00,9.80
2007,09,17,02,01,9.90
2007,09,17,02,02,9.90
2007,09,17,02,03,10.00
2007,09,17,02,04,10.00
2007,09,17,02,05,10.00
2007,09,17,02,06,10.10
2007,09,17,02,07,10.10
2007,09,17,02,08,10.20
2007,09,17,02,09,10.20
2007,09,17,02,10,10.30
2007,09,17,02,11,10.30
2007,09,17,02,12,10.30
2007,09,17,02,13,10.40
2007,09,17,02,14,10.40
2007,09,17,02,15,10.40
2007,09,17,02,16,10.40
2007,09,17,02,17,10.40
2007,09,17,02,18,10.40
2007,09,17,02,19,10.40
2007,09,17,02,20,10.50
2007,09,17,02,21,10.50
2007,09,17,02,22,10.50
2007,09,17,02,23,10.50
2007,09,17,02,24,10.50
2007,09,17,02,25,10.50
2007,09,17,02,26,10.50
2007,09,17,02,27,10.50
2007,09,17,02,28,10.40
2007,09,17,02,29,10.40
2007,09,17,02,30,10.40
2007,09,17,02,31,10.40
2007,09,17,02,32,10.40
2007,09,17,02,33,10.40
2007,09,17,02,34,10.40
2007,09,17,02,35,10.30
2007,09,17,02,36,10.30
2007,09,17,02,37,10.30
2007,09,17,02,38,10.30
2007,09,17,02,39,10.20
2007,09,17,02,40,10.20
2007,09,17,02,41,10.10
2007,09,17,02,42,10.10
2007,09,17,02,43,10.10
2007,09,17,02,44,10.00
2007,09,17,02,45,10.00
2007,09,17,02,46,9.90
2007,09,17,02,47,9.90
2007,09,17,02,48,9.90
2007,09,17,02,49,9.90
2007,09,17,02,50,9.80
2007,09,17,02,51,9.80
2007,09,17,02,52,9.80
2007,09,17,02,53,9.80
2007,09,17,02,54,9.80
2007,09,17,02,55,9.80
2007,09,17,02,56,9.70
2007,09,17,02,57,9.70
2007,09,17,02,58,9.70
2007,09,17,02,59,9.70
2007,09,17,03,00,9.70
2007,09,17,03,01,9.70
2007,09,17,03,02,9.60
2007,09,17,03,03,9.60
2007,09,17,03,04,9.60
2007,09,17,03,05,9.60
2007,09,17,03,06,9.60
2007,09,17,03,07,9.60
2007,09,17,03,08,9.60
2007,09,17,03,09,9.60
2007,09,17,03,10,9.60
2007,09,17,03,11,9.60
2007,09,17,03,12,9.60
2007,09,17,03,13,9.60
2007,09,17,03,14,9.60
2007,09,17,03,15,9.60
2007,09,17,03,16,9.60
2007,09,17,03,17,9.60
2007,09,17,03,18,9.50
2007,09,17,03,19,9.50
2007,09,17,03,20,9.50
2007,09,17,03,21,9.50
2007,09,17,03,22,9.40
2007,09,17,03,23,9.40
2007,09,17,03,24,9.40
2007,09,17,03,25,9.40
2007,09,17,03,26,9.40
2007,09,17,03,27,9.40
2007,09,17,03,28,9.40
2007,09,17,03,29,9.40
2007,09,17,03,30,9.30
2007,09,17,03,31,9.30
2007,09,17,03,32,9.30
2007,09,17,03,33,9.30
2007,09,17,03,34,9.30
2007,09,17,03,35,9.30
2007,09,17,03,36,9.30
2007,09,17,03,37,9.30
2007,09,17,03,38,9.30
2007,09,17,03,39,9.20
2007,09,17,03,40,9.20
2007,09,17,03,41,9.20
2007,09,17,03,42,9.20
2007,09,17,03,43,9.20
2007,09,17,03,44,9.20
2007,09,17,03,45,9.10
2007,09,17,03,46,9.10
2007,09,17,03,47,9.10
2007,09,17,03,48,9.10
2007,09,17,03,49,9.10
2007,09,17,03,50,9.10
2007,09,17,03,51,9.10
2007,09,17,03,52,9.00
2007,09,17,03,53,9.00
2007,09,17,03,54,9.00
2007,09,17,03,55,9.10
2007,09,17,03,56,9.10
2007,09,17,03,57,9.10
2007,09,17,03,58,9.20
2007,09,17,03,59,9.20
2007,09,17,04,00,9.20
2007,09,17,04,01,9.20
2007,09,17,04,02,9.30
2007,09,17,04,03,9.30
2007,09,17,04,04,9.30
2007,09,17,04,05,9.30
2007,09,17,04,06,9.30
2007,09,17,04,07,9.40
2007,09,17,04,08,9.40
2007,09,17,04,09,9.40
2007,09,17,04,10,9.40
2007,09,17,04,11,9.40
2007,09,17,04,12,9.40
2007,09,17,04,13,9.40
2007,09,17,04,14,9.40
2007,09,17,04,15,9.40
2007,09,17,04,16,9.40
2007,09,17,04,17,9.40
2007,09,17,04,18,9.50
2007,09,17,04,19,9.50
2007,09,17,04,20,9.50
2007,09,17,04,21,9.50
2007,09,17,04,22,9.50
2007,09,17,04,23,9.60
2007,09,17,04,24,9.60
2007,09,17,04,25,9.60
2007,09,17,04,26,9.60
2007,09,17,04,27,9.60
2007,09,17,04,28,9.60
2007,09,17,04,29,9.60
2007,09,17,04,30,9.60
2007,09,17,04,31,9.60
2007,09,17,04,32,9.60
2007,09,17,04,33,9.70
2007,09,17,04,34,9.70
2007,09,17,04,35,9.70
2007,09,17,04,36,9.70
2007,09,17,04,37,9.80
2007,09,17,04,38,9.80
2007,09,17,04,39,9.80
2007,09,17,04,40,9.80
2007,09,17,04,41,9.80
2007,09,17,04,42,9.80
2007,09,17,04,43,9.90
2007,09,17,04,44,9.80
2007,09,17,04,45,9.80
2007,09,17,04,46,9.80
2007,09,17,04,47,9.80
2007,09,17,04,48,9.80
2007,09,17,04,49,9.70
2007,09,17,04,50,9.70
2007,09,17,04,51,9.70
2007,09,17,04,52,9.60
2007,09,17,04,53,9.60
2007,09,17,04,54,9.60
2007,09,17,04,55,9.60
2007,09,17,04,56,9.50
2007,09,17,04,57,9.50
2007,09,17,04,58,9.40
2007,09,17,04,59,9.40
2007,09,17,05,00,9.40
2007,09,17,05,01,9.50
2007,09,17,05,02,9.50
2007,09,17,05,03,9.50
2007,09,17,05,04,9.50
2007,09,17,05,05,9.50
2007,09,17,05,06,9.50
2007,09,17,05,07,9.50
2007,09,17,05,08,9.40
2007,09,17,05,09,9.40
2007,09,17,05,10,9.40
2007,09,17,05,11,9.40
2007,09,17,05,12,9.40
2007,09,17,05,13,9.40
2007,09,17,05,14,9.30
2007,09,17,05,15,9.30
2007,09,17,05,16,9.30
2007,09,17,05,17,9.30
2007,09,17,05,18,9.30
2007,09,17,05,19,9.30
2007,09,17,05,20,9.20
2007,09,17,05,21,9.20
2007,09,17,05,22,9.20
2007,09,17,05,23,9.20
2007,09,17,05,24,9.20
2007,09,17,05,25,9.30
2007,09,17,05,26,9.30
2007,09,17,05,27,9.30
2007,09,17,05,28,9.30
2007,09,17,05,29,9.30
2007,09,17,05,30,9.30
2007,09,17,05,31,9.30
2007,09,17,05,32,9.30
2007,09,17,05,33,9.30
2007,09,17,05,34,9.30
2007,09,17,05,35,9.30
2007,09,17,05,36,9.30
2007,09,17,05,37,9.20
2007,09,17,05,38,9.20
2007,09,17,05,39,9.20
2007,09,17,05,40,9.20
2007,09,17,05,41,9.20
2007,09,17,05,42,9.20
2007,09,17,05,43,9.20
2007,09,17,05,44,9.20
2007,09,17,05,45,9.20
2007,09,17,05,46,9.10
2007,09,17,05,47,9.10
2007,09,17,05,48,9.10
2007,09,17,05,49,9.10
2007,09,17,05,50,9.10
2007,09,17,05,51,9.10
2007,09,17,05,52,9.00
2007,09,17,05,53,9.00
2007,09,17,05,54,9.00
2007,09,17,05,55,8.90
2007,09,17,05,56,8.90
2007,09,17,05,57,8.90
2007,09,17,05,58,8.90
2007,09,17,05,59,8.80
2007,09,17,06,00,8.80
2007,09,17,06,01,8.80
2007,09,17,06,02,8.80
2007,09,17,06,03,8.70
2007,09,17,06,04,8.70
2007,09,17,06,05,8.70
2007,09,17,06,06,8.70
2007,09,17,06,07,8.70
2007,09,17,06,08,8.60
2007,09,17,06,09,8.60
2007,09,17,06,10,8.60
2007,09,17,06,11,8.60
2007,09,17,06,12,8.60
2007,09,17,06,13,8.60
2007,09,17,06,14,8.60
2007,09,17,06,15,8.60
2007,09,17,06,16,8.60
2007,09,17,06,17,8.60
2007,09,17,06,18,8.60
2007,09,17,06,19,8.60
2007,09,17,06,20,8.60
2007,09,17,06,21,8.70
2007,09,17,06,22,8.70
2007,09,17,06,23,8.70
2007,09,17,06,24,8.80
2007,09,17,06,25,8.80
2007,09,17,06,26,8.80
2007,09,17,06,27,8.80
2007,09,17,06,28,8.80
2007,09,17,06,29,8.90
2007,09,17,06,30,8.90
2007,09,17,06,31,8.90
2007,09,17,06,32,9.00
2007,09,17,06,33,9.00
2007,09,17,06,34,9.00
2007,09,17,06,35,9.10
2007,09,17,06,36,9.10
2007,09,17,06,37,9.10
2007,09,17,06,38,9.10
2007,09,17,06,39,9.10
2007,09,17,06,40,9.10
2007,09,17,06,41,9.10
2007,09,17,06,42,9.00
2007,09,17,06,43,9.00
2007,09,17,06,44,9.00
2007,09,17,06,45,9.00
2007,09,17,06,46,9.00
2007,09,17,06,47,9.00
2007,09,17,06,48,9.00
2007,09,17,06,49,9.00
2007,09,17,06,50,9.00
2007,09,17,06,51,9.00
2007,09,17,06,52,9.00
2007,09,17,06,53,9.00
2007,09,17,06,54,9.00
2007,09,17,06,55,8.90
2007,09,17,06,56,8.90
2007,09,17,06,57,8.90
2007,09,17,06,58,8.90
2007,09,17,06,59,8.90
2007,09,17,07,00,8.80
2007,09,17,07,01,8.80
2007,09,17,07,02,8.80
2007,09,17,07,03,8.80
2007,09,17,07,04,8.80
2007,09,17,07,05,8.80
2007,09,17,07,06,8.80
2007,09,17,07,07,8.80
2007,09,17,07,08,8.80
2007,09,17,07,09,8.80
2007,09,17,07,10,8.80
2007,09,17,07,11,8.80
2007,09,17,07,12,8.80
2007,09,17,07,13,8.80
2007,09,17,07,14,8.80
2007,09,17,07,15,8.80
2007,09,17,07,16,8.80
2007,09,17,07,17,8.90
2007,09,17,07,18,8.90
2007,09,17,07,19,8.90
2007,09,17,07,20,8.90
2007,09,17,07,21,8.90
2007,09,17,07,22,9.00
2007,09,17,07,23,9.00
2007,09,17,07,24,9.10
2007,09,17,07,25,9.10
2007,09,17,07,26,9.10
2007,09,17,07,27,9.20
2007,09,17,07,28,9.20
2007,09,17,07,29,9.20
2007,09,17,07,30,9.30
2007,09,17,07,31,9.30
2007,09,17,07,32,9.30
2007,09,17,07,33,9.30
2007,09,17,07,34,9.30
2007,09,17,07,35,9.40
2007,09,17,07,36,9.40
2007,09,17,07,37,9.40
2007,09,17,07,38,9.40
2007,09,17,07,39,9.50
2007,09,17,07,40,9.50
2007,09,17,07,41,9.60
2007,09,17,07,42,9.60
2007,09,17,07,43,9.60
2007,09,17,07,44,9.60
2007,09,17,07,45,9.70
2007,09,17,07,46,9.70
2007,09,17,07,47,9.70
2007,09,17,07,48,9.70
2007,09,17,07,49,9.70
2007,09,17,07,50,9.80
2007,09,17,07,51,9.80
2007,09,17,07,52,9.90
2007,09,17,07,53,10.00
2007,09,17,07,54,10.00
2007,09,17,07,55,10.10
2007,09,17,07,56,10.20
2007,09,17,07,57,10.30
2007,09,17,07,58,10.30
2007,09,17,07,59,10.40
2007,09,17,08,00,10.50
2007,09,17,08,01,10.60
2007,09,17,08,02,10.70
2007,09,17,08,03,10.80
2007,09,17,08,04,10.90
2007,09,17,08,05,11.00
2007,09,17,08,06,11.10
2007,09,17,08,07,11.10
2007,09,17,08,08,11.20
2007,09,17,08,09,11.30
2007,09,17,08,10,11.30
2007,09,17,08,11,11.40
2007,09,17,08,12,11.50
2007,09,17,08,13,11.50
2007,09,17,08,14,11.60
2007,09,17,08,15,11.70
2007,09,17,08,16,11.70
2007,09,17,08,17,11.80
2007,09,17,08,18,11.80
2007,09,17,08,19,11.90
2007,09,17,08,20,11.90
2007,09,17,08,21,12.00
2007,09,17,08,22,12.10
2007,09,17,08,23,12.10
2007,09,17,08,24,12.20
2007,09,17,08,25,12.30
2007,09,17,08,26,12.30
2007,09,17,08,27,12.40
2007,09,17,08,28,12.50
2007,09,17,08,29,12.50
2007,09,17,08,30,12.60
2007,09,17,08,31,12.60
2007,09,17,08,32,12.70
2007,09,17,08,33,12.70
2007,09,17,08,34,12.80
2007,09,17,08,35,12.80
2007,09,17,08,36,12.80
2007,09,17,08,37,12.90
2007,09,17,08,38,12.90
2007,09,17,08,39,12.90
2007,09,17,08,40,13.00
2007,09,17,08,41,13.10
2007,09,17,08,42,13.10
2007,09,17,08,43,13.20
2007,09,17,08,44,13.20
2007,09,17,08,45,13.30
2007,09,17,08,46,13.30
2007,09,17,08,47,13.40
2007,09,17,08,48,13.40
2007,09,17,08,49,13.40
2007,09,17,08,50,13.40
2007,09,17,08,51,13.40
2007,09,17,08,52,13.40
2007,09,17,08,53,13.40
2007,09,17,08,54,13.40
2007,09,17,08,55,13.40
2007,09,17,08,56,13.40
2007,09,17,08,57,13.40
2007,09,17,08,58,13.40
2007,09,17,08,59,13.40
2007,09,17,09,00,13.40
2007,09,17,09,01,13.30
2007,09,17,09,02,13.40
2007,09,17,09,03,13.40
2007,09,17,09,04,13.40
2007,09,17,09,05,13.40
2007,09,17,09,06,13.40
2007,09,17,09,07,13.40
2007,09,17,09,08,13.50
2007,09,17,09,09,13.60
2007,09,17,09,10,13.60
2007,09,17,09,11,13.60
2007,09,17,09,12,13.60
2007,09,17,09,13,13.60
2007,09,17,09,14,13.60
2007,09,17,09,15,13.60
2007,09,17,09,16,13.70
2007,09,17,09,17,13.70
2007,09,17,09,18,13.70
2007,09,17,09,19,13.80
2007,09,17,09,20,13.80
2007,09,17,09,21,13.80
2007,09,17,09,22,13.80
2007,09,17,09,23,13.80
2007,09,17,09,24,13.80
2007,09,17,09,25,13.80
2007,09,17,09,26,13.80
2007,09,17,09,27,13.80
2007,09,17,09,28,13.80
2007,09,17,09,29,13.80
2007,09,17,09,30,13.80
2007,09,17,09,31,13.90
2007,09,17,09,32,13.90
2007,09,17,09,33,13.90
2007,09,17,09,34,13.90
2007,09,17,09,35,13.90
2007,09,17,09,36,13.90
2007,09,17,09,37,14.00
2007,09,17,09,38,14.10
2007,09,17,09,39,14.10
2007,09,17,09,40,14.10
2007,09,17,09,41,14.20
2007,09,17,09,42,14.20
2007,09,17,09,43,14.30
2007,09,17,09,44,14.30
2007,09,17,09,45,14.40
2007,09,17,09,46,14.40
2007,09,17,09,47,14.40
2007,09,17,09,48,14.40
2007,09,17,09,49,14.40
2007,09,17,09,50,14.30
2007,09,17,09,51,14.30
2007,09,17,09,52,14.20
2007,09,17,09,53,14.20
2007,09,17,09,54,14.30
2007,09,17,09,55,14.20
2007,09,17,09,56,14.30
2007,09,17,09,57,14.30
2007,09,17,09,58,14.20
2007,09,17,09,59,14.20
2007,09,17,10,00,14.20
2007,09,17,10,01,14.20
2007,09,17,10,02,14.20
2007,09,17,10,03,14.20
2007,09,17,10,04,14.20
2007,09,17,10,05,14.10
2007,09,17,10,06,14.00
2007,09,17,10,07,13.90
2007,09,17,10,08,13.80
2007,09,17,10,09,13.70
2007,09,17,10,10,13.70
2007,09,17,10,11,13.70
2007,09,17,10,12,13.70
2007,09,17,10,13,13.70
2007,09,17,10,14,13.80
2007,09,17,10,15,13.90
2007,09,17,10,16,14.00
2007,09,17,10,17,14.10
2007,09,17,10,18,14.20
2007,09,17,10,19,14.30
2007,09,17,10,20,14.30
2007,09,17,10,21,14.30
2007,09,17,10,22,14.30
2007,09,17,10,23,14.30
2007,09,17,10,24,14.30
2007,09,17,10,25,14.30
2007,09,17,10,26,14.30
2007,09,17,10,27,14.30
2007,09,17,10,28,14.40
2007,09,17,10,29,14.40
2007,09,17,10,30,14.40
2007,09,17,10,31,14.40
2007,09,17,10,32,14.40
2007,09,17,10,33,14.40
2007,09,17,10,34,14.40
2007,09,17,10,35,14.40
2007,09,17,10,36,14.40
2007,09,17,10,37,14.50
2007,09,17,10,38,14.50
2007,09,17,10,39,14.60
2007,09,17,10,40,14.80
2007,09,17,10,41,14.90
2007,09,17,10,42,15.00
2007,09,17,10,43,15.00
2007,09,17,10,44,15.00
2007,09,17,10,45,14.90
2007,09,17,10,46,14.80
2007,09,17,10,47,14.60
2007,09,17,10,48,14.50
2007,09,17,10,49,14.40
2007,09,17,10,50,14.40
2007,09,17,10,51,14.40
2007,09,17,10,52,14.40
2007,09,17,10,53,14.40
2007,09,17,10,54,14.40
2007,09,17,10,55,14.50
2007,09,17,10,56,14.50
2007,09,17,10,57,14.60
2007,09,17,10,58,14.60
2007,09,17,10,59,14.50
2007,09,17,11,00,14.40
2007,09,17,11,01,14.30
2007,09,17,11,02,14.40
2007,09,17,11,03,14.40
2007,09,17,11,04,14.40
2007,09,17,11,05,14.40
2007,09,17,11,06,14.30
2007,09,17,11,07,14.30
2007,09,17,11,08,14.30
2007,09,17,11,09,14.30
2007,09,17,11,10,14.30
2007,09,17,11,11,14.40
2007,09,17,11,12,14.40
2007,09,17,11,13,14.40
2007,09,17,11,14,14.30
2007,09,17,11,15,14.30
2007,09,17,11,16,14.30
2007,09,17,11,17,14.30
2007,09,17,11,18,14.30
2007,09,17,11,19,14.30
2007,09,17,11,20,14.20
2007,09,17,11,21,14.20
2007,09,17,11,22,14.20
2007,09,17,11,23,14.30
2007,09,17,11,24,14.30
2007,09,17,11,25,14.30
2007,09,17,11,26,14.30
2007,09,17,11,27,14.30
2007,09,17,11,28,14.40
2007,09,17,11,29,14.40
2007,09,17,11,30,14.50
2007,09,17,11,31,14.60
2007,09,17,11,32,14.60
2007,09,17,11,33,14.70
2007,09,17,11,34,14.70
2007,09,17,11,35,14.70
2007,09,17,11,36,14.60
2007,09,17,11,37,14.60
2007,09,17,11,38,14.70
2007,09,17,11,39,14.70
2007,09,17,11,40,14.80
2007,09,17,11,41,14.80
2007,09,17,11,42,14.80
2007,09,17,11,43,14.80
2007,09,17,11,44,14.60
2007,09,17,11,45,14.50
2007,09,17,11,46,14.50
2007,09,17,11,47,14.40
2007,09,17,11,48,14.40
2007,09,17,11,49,14.50
2007,09,17,11,50,14.50
2007,09,17,11,51,14.50
2007,09,17,11,52,14.40
2007,09,17,11,53,14.30
2007,09,17,11,54,14.30
2007,09,17,11,55,14.30
2007,09,17,11,56,14.30
2007,09,17,11,57,14.30
2007,09,17,11,58,14.20
2007,09,17,11,59,14.20
2007,09,17,12,00,14.20
2007,09,17,12,01,14.20
2007,09,17,12,02,14.20
2007,09,17,12,03,14.30
2007,09,17,12,04,14.30
2007,09,17,12,05,14.40
2007,09,17,12,06,14.50
2007,09,17,12,07,14.60
2007,09,17,12,08,14.70
2007,09,17,12,09,14.70
2007,09,17,12,10,14.80
2007,09,17,12,11,14.90
2007,09,17,12,12,15.00
2007,09,17,12,13,15.00
2007,09,17,12,14,14.90
2007,09,17,12,15,14.80
2007,09,17,12,16,14.80
2007,09,17,12,17,14.70
2007,09,17,12,18,14.60
2007,09,17,12,19,14.60
2007,09,17,12,20,14.60
2007,09,17,12,21,14.60
2007,09,17,12,22,14.60
2007,09,17,12,23,14.60
2007,09,17,12,24,14.70
2007,09,17,12,25,14.70
2007,09,17,12,26,14.70
2007,09,17,12,27,14.70
2007,09,17,12,28,14.70
2007,09,17,12,29,14.60
2007,09,17,12,30,14.60
2007,09,17,12,31,14.70
2007,09,17,12,32,14.70
2007,09,17,12,33,14.80
2007,09,17,12,34,14.80
2007,09,17,12,35,14.80
2007,09,17,12,36,14.90
2007,09,17,12,37,14.90
2007,09,17,12,38,14.80
2007,09,17,12,39,14.80
2007,09,17,12,40,14.80
2007,09,17,12,41,14.80
2007,09,17,12,42,14.80
2007,09,17,12,43,14.90
2007,09,17,12,44,15.00
2007,09,17,12,45,15.00
2007,09,17,12,46,15.00
2007,09,17,12,47,15.00
2007,09,17,12,48,15.00
2007,09,17,12,49,15.00
2007,09,17,12,50,15.10
2007,09,17,12,51,15.20
2007,09,17,12,52,15.30
2007,09,17,12,53,15.30
2007,09,17,12,54,15.20
2007,09,17,12,55,15.20
2007,09,17,12,56,15.10
2007,09,17,12,57,15.20
2007,09,17,12,58,15.20
2007,09,17,12,59,15.30
2007,09,17,13,00,15.40
2007,09,17,13,01,15.60
2007,09,17,13,02,15.60
2007,09,17,13,03,15.60
2007,09,17,13,04,15.50
2007,09,17,13,05,15.50
2007,09,17,13,06,15.40
2007,09,17,13,07,15.30
2007,09,17,13,08,15.20
2007,09,17,13,09,15.10
2007,09,17,13,10,15.00
2007,09,17,13,11,15.00
2007,09,17,13,12,15.00
2007,09,17,13,13,15.00
2007,09,17,13,14,15.00
2007,09,17,13,15,15.10
2007,09,17,13,16,15.20
2007,09,17,13,17,15.30
2007,09,17,13,18,15.40
2007,09,17,13,19,15.50
2007,09,17,13,20,15.50
2007,09,17,13,21,15.50
2007,09,17,13,22,15.40
2007,09,17,13,23,15.40
2007,09,17,13,24,15.30
2007,09,17,13,25,15.20
2007,09,17,13,26,15.10
2007,09,17,13,27,15.10
2007,09,17,13,28,15.10
2007,09,17,13,29,15.10
2007,09,17,13,30,15.00
2007,09,17,13,31,15.00
2007,09,17,13,32,15.00
2007,09,17,13,33,14.90
2007,09,17,13,34,14.90
2007,09,17,13,35,14.80
2007,09,17,13,36,14.80
2007,09,17,13,37,14.70
2007,09,17,13,38,14.70
2007,09,17,13,39,14.70
2007,09,17,13,40,14.70
2007,09,17,13,41,14.70
2007,09,17,13,42,14.70
2007,09,17,13,43,14.70
2007,09,17,13,44,14.70
2007,09,17,13,45,14.70
2007,09,17,13,46,14.70
2007,09,17,13,47,14.70
2007,09,17,13,48,14.70
2007,09,17,13,49,14.70
2007,09,17,13,50,14.70
2007,09,17,13,51,14.70
2007,09,17,13,52,14.70
2007,09,17,13,53,14.70
2007,09,17,13,54,14.70
2007,09,17,13,55,14.70
2007,09,17,13,56,14.70
2007,09,17,13,57,14.70
2007,09,17,13,58,14.70
2007,09,17,13,59,14.70
2007,09,17,14,00,14.70
2007,09,17,14,01,14.80
2007,09,17,14,02,14.80
2007,09,17,14,03,14.90
2007,09,17,14,04,15.00
2007,09,17,14,05,15.00
2007,09,17,14,06,15.00
2007,09,17,14,07,15.00
2007,09,17,14,08,15.00
2007,09,17,14,09,15.00
2007,09,17,14,10,15.00
2007,09,17,14,11,15.00
2007,09,17,14,12,15.00
2007,09,17,14,13,15.00
2007,09,17,14,14,14.90
2007,09,17,14,15,14.90
2007,09,17,14,16,14.80
2007,09,17,14,17,14.80
2007,09,17,14,18,14.90
2007,09,17,14,19,14.90
2007,09,17,14,20,15.00
2007,09,17,14,21,15.00
2007,09,17,14,22,15.00
2007,09,17,14,23,15.00
2007,09,17,14,24,15.00
2007,09,17,14,25,15.00
2007,09,17,14,26,15.00
2007,09,17,14,27,15.00
2007,09,17,14,28,15.00
2007,09,17,14,29,15.00
2007,09,17,14,30,15.00
2007,09,17,14,31,15.00
2007,09,17,14,32,15.00
2007,09,17,14,33,15.00
2007,09,17,14,34,15.00
2007,09,17,14,35,15.00
2007,09,17,14,36,14.90
2007,09,17,14,37,14.90
2007,09,17,14,38,14.80
2007,09,17,14,39,14.80
2007,09,17,14,40,14.70
2007,09,17,14,41,14.70
2007,09,17,14,42,14.70
2007,09,17,14,43,14.70
2007,09,17,14,44,14.70
2007,09,17,14,45,14.70
2007,09,17,14,46,14.70
2007,09,17,14,47,14.80
2007,09,17,14,48,14.80
2007,09,17,14,49,14.90
2007,09,17,14,50,14.90
2007,09,17,14,51,14.90
2007,09,17,14,52,14.90
2007,09,17,14,53,14.90
2007,09,17,14,54,15.00
2007,09,17,14,55,15.00
2007,09,17,14,56,15.00
2007,09,17,14,57,15.00
2007,09,17,14,58,15.00
2007,09,17,14,59,15.00
2007,09,17,15,00,15.10
2007,09,17,15,01,15.20
2007,09,17,15,02,15.20
2007,09,17,15,03,15.30
2007,09,17,15,04,15.30
2007,09,17,15,05,15.30
2007,09,17,15,06,15.30
2007,09,17,15,07,15.30
2007,09,17,15,08,15.40
2007,09,17,15,09,15.40
2007,09,17,15,10,15.50
2007,09,17,15,11,15.70
2007,09,17,15,12,15.70
2007,09,17,15,13,15.70
2007,09,17,15,14,15.70
2007,09,17,15,15,15.70
2007,09,17,15,16,15.70
2007,09,17,15,17,15.70
2007,09,17,15,18,15.70
2007,09,17,15,19,15.70
2007,09,17,15,20,15.70
2007,09,17,15,21,15.70
2007,09,17,15,22,15.70
2007,09,17,15,23,15.80
2007,09,17,15,24,15.80
2007,09,17,15,25,15.80
2007,09,17,15,26,15.80
2007,09,17,15,27,15.80
2007,09,17,15,28,15.90
2007,09,17,15,29,15.90
2007,09,17,15,30,15.90
2007,09,17,15,31,15.90
2007,09,17,15,32,15.90
2007,09,17,15,33,15.90
2007,09,17,15,34,15.90
2007,09,17,15,35,15.90
2007,09,17,15,36,16.00
2007,09,17,15,37,16.00
2007,09,17,15,38,16.00
2007,09,17,15,39,16.10
2007,09,17,15,40,16.20
2007,09,17,15,41,16.20
2007,09,17,15,42,16.10
2007,09,17,15,43,16.10
2007,09,17,15,44,16.00
2007,09,17,15,45,16.00
2007,09,17,15,46,16.10
2007,09,17,15,47,16.10
2007,09,17,15,48,16.10
2007,09,17,15,49,16.10
2007,09,17,15,50,16.10
2007,09,17,15,51,16.00
2007,09,17,15,52,15.90
2007,09,17,15,53,15.90
2007,09,17,15,54,15.80
2007,09,17,15,55,15.80
2007,09,17,15,56,15.80
2007,09,17,15,57,15.70
2007,09,17,15,58,15.70
2007,09,17,15,59,15.70
2007,09,17,16,00,15.80
2007,09,17,16,01,15.80
2007,09,17,16,02,15.80
2007,09,17,16,03,15.80
2007,09,17,16,04,15.80
2007,09,17,16,05,15.80
2007,09,17,16,06,15.80
2007,09,17,16,07,15.80
2007,09,17,16,08,15.80
2007,09,17,16,09,15.80
2007,09,17,16,10,15.90
2007,09,17,16,11,15.90
2007,09,17,16,12,15.90
2007,09,17,16,13,15.90
2007,09,17,16,14,15.90
2007,09,17,16,15,15.90
2007,09,17,16,16,15.90
2007,09,17,16,17,15.80
2007,09,17,16,18,15.80
2007,09,17,16,19,15.80
2007,09,17,16,20,15.80
2007,09,17,16,21,15.80
2007,09,17,16,22,15.80
2007,09,17,16,23,15.80
2007,09,17,16,24,15.90
2007,09,17,16,25,15.90
2007,09,17,16,26,15.90
2007,09,17,16,27,15.90
2007,09,17,16,28,15.90
2007,09,17,16,29,15.90
2007,09,17,16,30,15.90
2007,09,17,16,31,15.90
2007,09,17,16,32,15.90
2007,09,17,16,33,15.90
2007,09,17,16,34,15.90
2007,09,17,16,35,15.90
2007,09,17,16,36,15.90
2007,09,17,16,37,15.90
2007,09,17,16,38,15.90
2007,09,17,16,39,15.90
2007,09,17,16,40,15.90
2007,09,17,16,41,15.90
2007,09,17,16,42,15.80
2007,09,17,16,43,15.80
2007,09,17,16,44,15.80
2007,09,17,16,45,15.90
2007,09,17,16,46,15.90
2007,09,17,16,47,15.90
2007,09,17,16,48,15.90
2007,09,17,16,49,15.80
2007,09,17,16,50,15.80
2007,09,17,16,51,15.80
2007,09,17,16,52,15.80
2007,09,17,16,53,15.80
2007,09,17,16,54,15.80
2007,09,17,16,55,15.80
2007,09,17,16,56,15.90
2007,09,17,16,57,15.90
2007,09,17,16,58,15.90
2007,09,17,16,59,15.90
2007,09,17,17,00,15.90
2007,09,17,17,01,15.90
2007,09,17,17,02,16.00
2007,09,17,17,03,16.00
2007,09,17,17,04,16.00
2007,09,17,17,05,16.00
2007,09,17,17,06,16.00
2007,09,17,17,07,16.10
2007,09,17,17,08,16.00
2007,09,17,17,09,16.00
2007,09,17,17,10,16.00
2007,09,17,17,11,16.00
2007,09,17,17,12,16.00
2007,09,17,17,13,16.00
2007,09,17,17,14,16.00
2007,09,17,17,15,16.00
2007,09,17,17,16,16.00
2007,09,17,17,17,16.10
2007,09,17,17,18,16.10
2007,09,17,17,19,16.10
2007,09,17,17,20,16.20
2007,09,17,17,21,16.20
2007,09,17,17,22,16.20
2007,09,17,17,23,16.20
2007,09,17,17,24,16.20
2007,09,17,17,25,16.20
2007,09,17,17,26,16.20
2007,09,17,17,27,16.30
2007,09,17,17,28,16.30
2007,09,17,17,29,16.30
2007,09,17,17,30,16.40
2007,09,17,17,31,16.50
2007,09,17,17,32,16.50
2007,09,17,17,33,16.60
2007,09,17,17,34,16.70